FW4684 Weather Reports


time (UTC)temp
F
wind
direction
speed
knots
gust
knots
rain 1hr
in
rain 24hr
in
rain mn
in
humidity
%
barometer
mb
20260503190030 66 238 0.9 8.7 0.00 0.00 0.00 21 1019.7
20260503185528 65 236 4.3 8.7 0.00 0.00 0.00 21 1019.7
20260503185026 65 159 1.7 6.1 0.00 0.00 0.00 21 1019.8
20260503184524 65 243 0.9 6.1 0.00 0.00 0.00 21 1020.0
20260503184023 64 158 0.9 9.6 0.00 0.00 0.00 23 1019.9
20260503183522 63 53 2.6 9.6 0.00 0.00 0.00 24 1020.0
20260503183034 64 299 0.9 7.8 0.00 0.00 0.00 22 1020.1
20260503182519 63 52 3.5 9.6 0.00 0.00 0.00 23 1020.2
20260503182020 62 9 5.2 9.6 0.00 0.00 0.00 22 1020.3
20260503181516 63 41 2.6 8.7 0.00 0.00 0.00 23 1020.4
20260503181015 63 24 4.3 8.7 0.00 0.00 0.00 19 1020.5
20260503180018 64 51 0.9 8.7 0.00 0.00 0.00 19 1020.6
20260503175512 64 309 4.3 8.7 0.00 0.00 0.00 18 1020.7
20260503175015 64 1 0.0 4.3 0.00 0.00 0.00 19 1020.6
20260503174511 64 316 1.7 4.3 0.00 0.00 0.00 20 1020.7
20260503174011 63 323 0.0 2.6 0.00 0.00 0.00 20 1020.7
20260503173510 62 335 0.9 9.6 0.00 0.00 0.00 20 1020.8
20260503173007 61 359 2.6 10.4 0.00 0.00 0.00 21 1021.0
20260503172506 61 256 2.6 10.4 0.00 0.00 0.00 20 1021.0
20260503172006 62 46 2.6 9.6 0.00 0.00 0.00 23 1020.9
20260503171503 62 50 1.7 11.3 0.00 0.00 0.00 23 1021.2
20260503171002 61 46 3.5 11.3 0.00 0.00 0.00 22 1021.3
20260503150648 56 316 2.6 10.4 0.00 0.00 0.00 25 1022.8
20260503131036 50 20 2.6 4.3 0.00 0.00 0.00 43 1022.6
20260503130634 49 58 0.9 2.6 0.00 0.00 0.00 44 1022.8
20260503110622 33 40 0.0 0.9 0.00 0.00 0.00 44 1022.0
20260503090104 35 67 0.0 0.0 0.00 0.00 0.00 50 1020.4
20260503081611 35 67 0.0 0.0 0.00 0.00 0.00 53 1019.7
20260503081045 35 67 0.0 0.0 0.00 0.00 0.00 54 1019.7
20260503080546 35 67 0.0 0.0 0.00 0.00 0.00 54 1019.7
20260503072539 36 67 0.0 0.9 0.00 0.00 0.00 57 1019.4
20260503072038 36 67 0.0 0.9 0.00 0.00 0.00 57 1019.4
20260503071536 36 67 0.0 0.9 0.00 0.00 0.00 57 1019.3
20260503071034 37 67 0.0 0.0 0.00 0.00 0.00 57 1019.3
20260503070536 37 67 0.0 0.9 0.00 0.00 0.00 60 1019.2
20260503055023 38 247 0.0 0.0 0.00 0.00 0.00 65 1019.0
20260503054522 38 246 0.0 0.9 0.00 0.00 0.00 66 1019.0
20260503054024 38 246 0.0 0.9 0.00 0.00 0.00 66 1019.1
20260503053520 38 246 0.0 0.9 0.00 0.00 0.00 66 1019.0
20260503053020 39 246 0.0 0.9 0.00 0.00 0.00 65 1019.1
20260503052518 39 240 0.0 0.0 0.00 0.00 0.00 65 1019.1
20260503052017 39 240 0.0 0.9 0.00 0.00 0.00 66 1019.0
20260503051516 39 205 0.0 0.9 0.00 0.00 0.00 66 1019.0
20260503051014 39 317 0.0 2.6 0.00 0.00 0.00 66 1018.9
20260503050514 39 338 0.0 2.6 0.00 0.00 0.00 65 1018.9
20260503050027 39 14 0.0 1.7 0.00 0.00 0.00 66 1018.9
20260503045513 39 274 0.0 0.0 0.00 0.00 0.00 65 1018.9
20260503045018 40 245 0.0 0.0 0.00 0.00 0.00 65 1018.8
20260503044511 40 289 0.0 0.0 0.00 0.00 0.00 65 1018.8
20260503044008 40 158 0.0 0.0 0.00 0.00 0.00 65 1018.7
20260503043510 40 244 0.0 0.0 0.00 0.00 0.00 65 1018.6
20260503043007 40 244 0.0 0.0 0.00 0.00 0.00 65 1018.5
20260503042507 40 243 0.0 0.0 0.00 0.00 0.00 65 1018.4
20260503042005 40 243 0.0 0.0 0.00 0.00 0.00 64 1018.3
20260503041507 41 243 0.0 0.0 0.00 0.00 0.00 64 1018.3
20260503041005 41 247 0.0 0.0 0.00 0.00 0.00 64 1018.2
20260503040502 41 248 0.0 0.0 0.00 0.00 0.00 64 1018.0
20260503040002 41 248 0.0 0.0 0.00 0.00 0.00 64 1018.0
20260503035600 41 248 0.0 0.0 0.00 0.00 0.00 64 1018.0
20260503035059 41 267 0.0 0.0 0.00 0.00 0.00 64 1018.0
20260503034558 42 268 0.0 0.0 0.00 0.00 0.00 62 1017.9
20260503034057 42 53 0.0 0.0 0.00 0.00 0.00 62 1017.9
20260503033554 42 256 0.0 0.0 0.00 0.00 0.00 61 1017.7
20260503033120 42 256 0.0 0.0 0.00 0.00 0.00 61 1017.7
20260503032553 42 256 0.0 0.0 0.00 0.00 0.00 61 1017.7
20260503032051 43 256 0.0 0.9 0.00 0.00 0.00 61 1017.6
20260503031556 43 256 0.0 0.9 0.00 0.00 0.00 60 1017.7
20260503031048 43 256 0.0 0.9 0.00 0.00 0.00 59 1017.6
20260503030550 44 255 0.0 1.7 0.00 0.00 0.00 58 1017.6
20260503025546 44 246 0.0 2.6 0.00 0.00 0.00 57 1017.5
20260503025044 44 246 0.0 0.9 0.00 0.00 0.00 56 1017.6
20260503024556 44 223 0.0 0.0 0.00 0.00 0.00 57 1017.5
20260503024042 45 96 0.0 0.0 0.00 0.00 0.00 56 1017.5
20260503023543 45 162 0.0 1.7 0.00 0.00 0.00 55 1017.4
20260503023039 45 146 0.0 1.7 0.00 0.00 0.00 56 1017.2
20260503022537 46 252 0.0 0.9 0.00 0.00 0.00 54 1017.3
20260503022039 46 271 0.0 1.7 0.00 0.00 0.00 53 1017.2
20260503021534 46 193 0.0 1.7 0.00 0.00 0.00 52 1017.1
20260503021133 46 155 0.0 1.7 0.00 0.00 0.00 52 1017.0
20260503020531 47 228 0.0 1.7 0.00 0.00 0.00 53 1016.9
20260503015529 47 247 0.0 0.0 0.00 0.00 0.00 50 1017.0
20260503015027 48 272 0.0 0.9 0.00 0.00 0.00 48 1016.9
20260503014537 49 271 0.0 0.9 0.00 0.00 0.00 47 1016.8
20260503014022 49 282 0.0 0.9 0.00 0.00 0.00 45 1016.7
20260503013521 50 60 0.0 5.2 0.00 0.00 0.00 42 1016.7
20260503013025 51 60 0.0 5.2 0.00 0.00 0.00 40 1016.7
20260503012520 51 27 0.9 3.5 0.00 0.00 0.00 40 1016.6
20260503012019 51 64 0.9 1.7 0.00 0.00 0.00 40 1016.5
20260503011516 51 73 0.0 1.7 0.00 0.00 0.00 41 1016.4
20260503011016 51 74 0.0 4.3 0.00 0.00 0.00 41 1016.4
20260503010516 51 343 0.0 2.6 0.00 0.00 0.00 42 1016.3
20260503005512 51 333 0.0 0.9 0.00 0.00 0.00 42 1016.0
20260503005011 52 333 0.0 0.9 0.00 0.00 0.00 41 1016.0
20260503004509 53 354 0.0 1.7 0.00 0.00 0.00 37 1016.0
20260503004007 54 354 0.0 2.6 0.00 0.00 0.00 33 1015.7
20260503003506 54 46 0.9 2.6 0.00 0.00 0.00 33 1015.8
20260503003004 54 41 0.0 4.3 0.00 0.00 0.00 32 1015.7
20260503002503 55 39 1.7 6.1 0.00 0.00 0.00 32 1015.5
20260503002002 55 1 1.7 7.0 0.00 0.00 0.00 31 1015.5
20260503001604 55 36 1.7 7.0 0.00 0.00 0.00 31 1015.4
20260503001104 55 17 2.6 9.6 0.00 0.00 0.00 31 1015.3
20260503000658 55 357 2.6 9.6 0.00 0.00 0.00 30 1015.2
20260502235557 55 358 2.6 10.4 0.00 0.00 0.00 31 1015.0
20260502235055 56 304 2.6 10.4 0.00 0.00 0.00 30 1015.0
20260502234611 56 31 3.5 8.7 0.00 0.00 0.00 29 1015.0
20260502234053 56 1 4.3 8.7 0.00 0.00 0.00 29 1015.0
20260502233553 57 15 2.6 11.3 0.00 0.00 0.00 28 1014.9
20260502233106 57 345 1.7 14.8 0.00 0.00 0.00 27 1014.9
20260502232547 57 340 6.1 14.8 0.00 0.00 0.00 27 1014.8
20260502232046 58 326 4.3 10.4 0.00 0.00 0.00 26 1014.7
20260502231559 58 359 7.0 13.9 0.00 0.00 0.00 25 1014.5
20260502231044 59 13 5.2 14.8 0.00 0.00 0.00 25 1014.6
20260502230642 59 340 3.5 14.8 0.00 0.00 0.00 25 1014.5
20260502225544 59 29 4.3 13.9 0.00 0.00 0.00 25 1014.4
20260502225039 59 337 4.3 13.9 0.00 0.00 0.00 24 1014.4
20260502224539 59 6 7.8 15.6 0.00 0.00 0.00 24 1014.5
20260502224038 59 41 2.6 15.6 0.00 0.00 0.00 25 1014.4
20260502223537 60 309 1.7 13.0 0.00 0.00 0.00 25 1014.5
20260502223039 60 356 7.8 17.4 0.00 0.00 0.00 25 1014.4
20260502222537 60 58 10.4 17.4 0.00 0.00 0.00 23 1014.2
20260502222034 60 34 7.8 13.0 0.00 0.00 0.00 24 1014.1
20260502221532 60 29 3.5 13.0 0.00 0.00 0.00 24 1014.1
20260502221035 61 347 5.2 17.4 0.00 0.00 0.00 23 1014.1
20260502220530 61 345 8.7 16.5 0.00 0.00 0.00 23 1014.1
20260502215530 62 40 6.1 16.5 0.00 0.00 0.00 21 1013.9
20260502215031 62 7 7.0 16.5 0.00 0.00 0.00 21 1013.7
20260502214530 61 345 7.8 16.5 0.00 0.00 0.00 21 1013.3
20260502214028 62 58 6.1 15.6 0.00 0.00 0.00 22 1013.3
20260502213527 62 63 5.2 18.2 0.00 0.00 0.00 23 1013.3
20260502213025 62 6 9.6 18.2 0.00 0.00 0.00 21 1013.3
20260502212525 62 316 8.7 14.8 0.00 0.00 0.00 21 1013.1
20260502212025 62 356 6.1 16.5 0.00 0.00 0.00 21 1013.1
20260502211534 62 348 8.7 16.5 0.00 0.00 0.00 21 1013.1
20260502211027 62 42 2.6 13.0 0.00 0.00 0.00 23 1013.2
20260502210522 62 357 6.1 13.9 0.00 0.00 0.00 19 1013.2
20260502205526 62 66 12.2 20.0 0.00 0.00 0.00 19 1013.1
20260502205022 62 319 8.7 20.0 0.00 0.00 0.00 20 1013.2
20260502204521 62 60 5.2 17.4 0.00 0.00 0.00 22 1013.1
20260502204020 62 13 6.1 17.4 0.00 0.00 0.00 19 1013.1
20260502203520 63 322 7.0 15.6 0.00 0.00 0.00 20 1013.2
20260502203018 64 16 0.9 6.1 0.00 0.00 0.00 21 1013.1
20260502202516 63 342 2.6 13.0 0.00 0.00 0.00 19 1013.0
20260502202017 63 25 7.0 11.3 0.00 0.00 0.00 20 1013.0
20260502201516 63 345 3.5 13.9 0.00 0.00 0.00 18 1012.9
20260502201015 62 28 6.1 15.6 0.00 0.00 0.00 20 1013.0
20260502200515 62 345 6.1 15.6 0.00 0.00 0.00 20 1013.2
20260502195512 62 309 5.2 19.1 0.00 0.00 0.00 18 1013.4
20260502195011 62 339 5.2 19.1 0.00 0.00 0.00 17 1013.5
20260502194510 63 51 8.7 17.4 0.00 0.00 0.00 19 1013.3
20260502194009 63 1 7.0 17.4 0.00 0.00 0.00 17 1013.4
20260502193508 63 58 2.6 17.4 0.00 0.00 0.00 20 1013.3
20260502193011 63 297 0.9 16.5 0.00 0.00 0.00 18 1013.4
20260502192505 62 13 8.7 16.5 0.00 0.00 0.00 20 1013.4
20260502192005 62 24 7.0 13.0 0.00 0.00 0.00 18 1013.4
20260502191503 63 63 6.1 20.0 0.00 0.00 0.00 18 1013.6
20260502191002 63 38 4.3 20.0 0.00 0.00 0.00 21 1013.5
20260502190503 63 334 4.3 13.0 0.00 0.00 0.00 19 1013.7